Location: Fort Wayne
(41.1310°N, 85.1290°W)
Time: 19:11:58
(UTC-04:00)

Tiros 1 despin weight - Visible Passes

Search period start: 24 August 2016 00:00
Search period end: 03 September 2016 00:00
Orbit: 596 x 645 km, 48.2° (Epoch: 24 August)

Date Brightness Start Highest point End Pass type
(mag) Time Alt. Az. Time Alt. Az. Time Alt. Az.
24 Aug ? 22:22:57 10° W 22:25:31 15° SW 22:27:14 12° SSW visible
25 Aug ? 20:57:17 10° WNW 21:01:39 40° SW 21:05:56 10° SSE visible
26 Aug ? 21:15:06 10° W 21:18:37 22° SW 21:22:06 10° S visible
27 Aug ? 21:34:35 10° WSW 21:35:27 10° SW 21:36:19 10° SW visible
